Year,Month,Day,Hour,Minute,Value (Times are PST for temperature in C)
2021,04,19,00,00,14.90
2021,04,19,00,01,14.90
2021,04,19,00,02,14.80
2021,04,19,00,03,14.80
2021,04,19,00,04,14.80
2021,04,19,00,05,14.80
2021,04,19,00,06,14.80
2021,04,19,00,07,14.90
2021,04,19,00,08,14.90
2021,04,19,00,09,15.00
2021,04,19,00,10,15.10
2021,04,19,00,11,15.10
2021,04,19,00,12,15.20
2021,04,19,00,13,15.20
2021,04,19,00,14,15.30
2021,04,19,00,15,15.40
2021,04,19,00,16,15.50
2021,04,19,00,17,15.70
2021,04,19,00,18,15.70
2021,04,19,00,19,15.70
2021,04,19,00,20,15.70
2021,04,19,00,21,15.70
2021,04,19,00,22,15.70
2021,04,19,00,23,15.70
2021,04,19,00,24,15.70
2021,04,19,00,25,15.70
2021,04,19,00,26,15.80
2021,04,19,00,27,15.90
2021,04,19,00,28,16.00
2021,04,19,00,29,16.10
2021,04,19,00,30,16.20
2021,04,19,00,31,16.20
2021,04,19,00,32,16.20
2021,04,19,00,33,16.30
2021,04,19,00,34,16.40
2021,04,19,00,35,16.40
2021,04,19,00,36,16.40
2021,04,19,00,37,16.40
2021,04,19,00,38,16.40
2021,04,19,00,39,16.30
2021,04,19,00,40,16.30
2021,04,19,00,41,16.20
2021,04,19,00,42,16.20
2021,04,19,00,43,16.10
2021,04,19,00,44,16.10
2021,04,19,00,45,16.00
2021,04,19,00,46,15.90
2021,04,19,00,47,15.90
2021,04,19,00,48,15.80
2021,04,19,00,49,15.80
2021,04,19,00,50,15.70
2021,04,19,00,51,15.60
2021,04,19,00,52,15.50
2021,04,19,00,53,15.50
2021,04,19,00,54,15.40
2021,04,19,00,55,15.30
2021,04,19,00,56,15.30
2021,04,19,00,57,15.20
2021,04,19,00,58,15.20
2021,04,19,00,59,15.10
2021,04,19,01,00,15.10
2021,04,19,01,01,15.10
2021,04,19,01,02,15.10
2021,04,19,01,03,15.10
2021,04,19,01,04,15.00
2021,04,19,01,05,14.90
2021,04,19,01,06,14.90
2021,04,19,01,07,14.80
2021,04,19,01,08,14.80
2021,04,19,01,09,14.80
2021,04,19,01,10,14.80
2021,04,19,01,11,14.70
2021,04,19,01,12,14.60
2021,04,19,01,13,14.60
2021,04,19,01,14,14.70
2021,04,19,01,15,14.70
2021,04,19,01,16,14.70
2021,04,19,01,17,14.70
2021,04,19,01,18,14.60
2021,04,19,01,19,14.60
2021,04,19,01,20,14.60
2021,04,19,01,21,14.60
2021,04,19,01,22,14.60
2021,04,19,01,23,14.60
2021,04,19,01,24,14.60
2021,04,19,01,25,14.70
2021,04,19,01,26,14.70
2021,04,19,01,27,14.70
2021,04,19,01,28,14.70
2021,04,19,01,29,14.70
2021,04,19,01,30,14.70
2021,04,19,01,31,14.70
2021,04,19,01,32,14.70
2021,04,19,01,33,14.70
2021,04,19,01,34,14.70
2021,04,19,01,35,14.60
2021,04,19,01,36,14.60
2021,04,19,01,37,14.60
2021,04,19,01,38,14.60
2021,04,19,01,39,14.60
2021,04,19,01,40,14.60
2021,04,19,01,41,14.60
2021,04,19,01,42,14.60
2021,04,19,01,43,14.60
2021,04,19,01,44,14.60
2021,04,19,01,45,14.50
2021,04,19,01,46,14.50
2021,04,19,01,47,14.40
2021,04,19,01,48,14.40
2021,04,19,01,49,14.40
2021,04,19,01,50,14.40
2021,04,19,01,51,14.40
2021,04,19,01,52,14.40
2021,04,19,01,53,14.40
2021,04,19,01,54,14.40
2021,04,19,01,55,14.40
2021,04,19,01,56,14.40
2021,04,19,01,57,14.40
2021,04,19,01,58,14.30
2021,04,19,01,59,14.30
2021,04,19,02,00,14.30
2021,04,19,02,01,14.20
2021,04,19,02,02,14.10
2021,04,19,02,03,14.10
2021,04,19,02,04,14.10
2021,04,19,02,05,14.00
2021,04,19,02,06,13.90
2021,04,19,02,07,13.90
2021,04,19,02,08,13.80
2021,04,19,02,09,13.70
2021,04,19,02,10,13.60
2021,04,19,02,11,13.60
2021,04,19,02,12,13.50
2021,04,19,02,13,13.50
2021,04,19,02,14,13.40
2021,04,19,02,15,13.30
2021,04,19,02,16,13.30
2021,04,19,02,17,13.20
2021,04,19,02,18,13.20
2021,04,19,02,19,13.10
2021,04,19,02,20,13.10
2021,04,19,02,21,13.00
2021,04,19,02,22,12.90
2021,04,19,02,23,12.90
2021,04,19,02,24,12.90
2021,04,19,02,25,12.80
2021,04,19,02,26,12.80
2021,04,19,02,27,12.90
2021,04,19,02,28,12.90
2021,04,19,02,29,12.80
2021,04,19,02,30,12.80
2021,04,19,02,31,12.80
2021,04,19,02,32,12.80
2021,04,19,02,33,12.80
2021,04,19,02,34,12.80
2021,04,19,02,35,12.80
2021,04,19,02,36,12.80
2021,04,19,02,37,12.80
2021,04,19,02,38,12.80
2021,04,19,02,39,12.80
2021,04,19,02,40,12.70
2021,04,19,02,41,12.70
2021,04,19,02,42,12.60
2021,04,19,02,43,12.50
2021,04,19,02,44,12.50
2021,04,19,02,45,12.40
2021,04,19,02,46,12.30
2021,04,19,02,47,12.30
2021,04,19,02,48,12.20
2021,04,19,02,49,12.30
2021,04,19,02,50,12.30
2021,04,19,02,51,12.30
2021,04,19,02,52,12.40
2021,04,19,02,53,12.50
2021,04,19,02,54,12.60
2021,04,19,02,55,12.60
2021,04,19,02,56,12.70
2021,04,19,02,57,12.70
2021,04,19,02,58,12.80
2021,04,19,02,59,12.80
2021,04,19,03,00,12.80
2021,04,19,03,01,12.80
2021,04,19,03,02,12.80
2021,04,19,03,03,12.80
2021,04,19,03,04,12.80
2021,04,19,03,05,12.70
2021,04,19,03,06,12.70
2021,04,19,03,07,12.70
2021,04,19,03,08,12.70
2021,04,19,03,09,12.60
2021,04,19,03,10,12.60
2021,04,19,03,11,12.50
2021,04,19,03,12,12.50
2021,04,19,03,13,12.40
2021,04,19,03,14,12.30
2021,04,19,03,15,12.20
2021,04,19,03,16,12.10
2021,04,19,03,17,12.10
2021,04,19,03,18,12.00
2021,04,19,03,19,12.00
2021,04,19,03,20,11.90
2021,04,19,03,21,11.90
2021,04,19,03,22,11.80
2021,04,19,03,23,11.70
2021,04,19,03,24,11.60
2021,04,19,03,25,11.60
2021,04,19,03,26,11.50
2021,04,19,03,27,11.40
2021,04,19,03,28,11.30
2021,04,19,03,29,11.30
2021,04,19,03,30,11.20
2021,04,19,03,31,11.10
2021,04,19,03,32,11.10
2021,04,19,03,33,11.10
2021,04,19,03,34,11.10
2021,04,19,03,35,11.10
2021,04,19,03,36,11.10
2021,04,19,03,37,11.20
2021,04,19,03,38,11.10
2021,04,19,03,39,11.10
2021,04,19,03,40,11.00
2021,04,19,03,41,11.00
2021,04,19,03,42,10.90
2021,04,19,03,43,10.90
2021,04,19,03,44,10.90
2021,04,19,03,45,10.80
2021,04,19,03,46,10.80
2021,04,19,03,47,10.80
2021,04,19,03,48,10.80
2021,04,19,03,49,10.80
2021,04,19,03,50,10.90
2021,04,19,03,51,10.90
2021,04,19,03,52,10.90
2021,04,19,03,53,10.80
2021,04,19,03,54,10.80
2021,04,19,03,55,10.70
2021,04,19,03,56,10.70
2021,04,19,03,57,10.60
2021,04,19,03,58,10.60
2021,04,19,03,59,10.60
2021,04,19,04,00,10.60
2021,04,19,04,01,10.60
2021,04,19,04,02,10.50
2021,04,19,04,03,10.50
2021,04,19,04,04,10.40
2021,04,19,04,05,10.40
2021,04,19,04,06,10.30
2021,04,19,04,07,10.30
2021,04,19,04,08,10.20
2021,04,19,04,09,10.20
2021,04,19,04,10,10.20
2021,04,19,04,11,10.20
2021,04,19,04,12,10.20
2021,04,19,04,13,10.20
2021,04,19,04,14,10.20
2021,04,19,04,15,10.20
2021,04,19,04,16,10.20
2021,04,19,04,17,10.20
2021,04,19,04,18,10.20
2021,04,19,04,19,10.20
2021,04,19,04,20,10.10
2021,04,19,04,21,10.10
2021,04,19,04,22,10.00
2021,04,19,04,23,10.00
2021,04,19,04,24,10.00
2021,04,19,04,25,10.00
2021,04,19,04,26,10.00
2021,04,19,04,27,10.10
2021,04,19,04,28,10.10
2021,04,19,04,29,10.20
2021,04,19,04,30,10.20
2021,04,19,04,31,10.30
2021,04,19,04,32,10.30
2021,04,19,04,33,10.40
2021,04,19,04,34,10.40
2021,04,19,04,35,10.40
2021,04,19,04,36,10.40
2021,04,19,04,37,10.40
2021,04,19,04,38,10.40
2021,04,19,04,39,10.40
2021,04,19,04,40,10.40
2021,04,19,04,41,10.40
2021,04,19,04,42,10.40
2021,04,19,04,43,10.40
2021,04,19,04,44,10.30
2021,04,19,04,45,10.30
2021,04,19,04,46,10.30
2021,04,19,04,47,10.20
2021,04,19,04,48,10.20
2021,04,19,04,49,10.20
2021,04,19,04,50,10.20
2021,04,19,04,51,10.20
2021,04,19,04,52,10.20
2021,04,19,04,53,10.10
2021,04,19,04,54,10.10
2021,04,19,04,55,10.10
2021,04,19,04,56,10.10
2021,04,19,04,57,10.10
2021,04,19,04,58,10.00
2021,04,19,04,59,10.00
2021,04,19,05,00,10.00
2021,04,19,05,01,9.90
2021,04,19,05,02,9.90
2021,04,19,05,03,9.80
2021,04,19,05,04,9.80
2021,04,19,05,05,9.70
2021,04,19,05,06,9.70
2021,04,19,05,07,9.60
2021,04,19,05,08,9.60
2021,04,19,05,09,9.50
2021,04,19,05,10,9.50
2021,04,19,05,11,9.40
2021,04,19,05,12,9.30
2021,04,19,05,13,9.20
2021,04,19,05,14,9.20
2021,04,19,05,15,9.10
2021,04,19,05,16,9.00
2021,04,19,05,17,9.00
2021,04,19,05,18,8.90
2021,04,19,05,19,8.80
2021,04,19,05,20,8.80
2021,04,19,05,21,8.80
2021,04,19,05,22,8.80
2021,04,19,05,23,8.80
2021,04,19,05,24,8.80
2021,04,19,05,25,8.80
2021,04,19,05,26,8.80
2021,04,19,05,27,8.80
2021,04,19,05,28,8.80
2021,04,19,05,29,8.80
2021,04,19,05,30,8.80
2021,04,19,05,31,8.80
2021,04,19,05,32,8.80
2021,04,19,05,33,8.80
2021,04,19,05,34,8.80
2021,04,19,05,35,8.80
2021,04,19,05,36,8.80
2021,04,19,05,37,8.70
2021,04,19,05,38,8.70
2021,04,19,05,39,8.60
2021,04,19,05,40,8.60
2021,04,19,05,41,8.60
2021,04,19,05,42,8.60
2021,04,19,05,43,8.60
2021,04,19,05,44,8.60
2021,04,19,05,45,8.60
2021,04,19,05,46,8.50
2021,04,19,05,47,8.50
2021,04,19,05,48,8.40
2021,04,19,05,49,8.40
2021,04,19,05,50,8.30
2021,04,19,05,51,8.30
2021,04,19,05,52,8.30
2021,04,19,05,53,8.20
2021,04,19,05,54,8.20
2021,04,19,05,55,8.10
2021,04,19,05,56,8.10
2021,04,19,05,57,8.10
2021,04,19,05,58,8.00
2021,04,19,05,59,7.90
2021,04,19,06,00,7.90
2021,04,19,06,01,7.90
2021,04,19,06,02,7.80
2021,04,19,06,03,7.80
2021,04,19,06,04,7.80
2021,04,19,06,05,7.70
2021,04,19,06,06,7.70
2021,04,19,06,07,7.70
2021,04,19,06,08,7.70
2021,04,19,06,09,7.70
2021,04,19,06,10,7.60
2021,04,19,06,11,7.60
2021,04,19,06,12,7.60
2021,04,19,06,13,7.60
2021,04,19,06,14,7.60
2021,04,19,06,15,7.60
2021,04,19,06,16,7.50
2021,04,19,06,17,7.50
2021,04,19,06,18,7.50
2021,04,19,06,19,7.50
2021,04,19,06,20,7.50
2021,04,19,06,21,7.50
2021,04,19,06,22,7.60
2021,04,19,06,23,7.60
2021,04,19,06,24,7.60
2021,04,19,06,25,7.60
2021,04,19,06,26,7.60
2021,04,19,06,27,7.70
2021,04,19,06,28,7.70
2021,04,19,06,29,7.80
2021,04,19,06,30,7.80
2021,04,19,06,31,7.80
2021,04,19,06,32,7.80
2021,04,19,06,33,7.70
2021,04,19,06,34,7.70
2021,04,19,06,35,7.70
2021,04,19,06,36,7.70
2021,04,19,06,37,7.70
2021,04,19,06,38,7.70
2021,04,19,06,39,7.70
2021,04,19,06,40,7.70
2021,04,19,06,41,7.70
2021,04,19,06,42,7.70
2021,04,19,06,43,7.70
2021,04,19,06,44,7.70
2021,04,19,06,45,7.70
2021,04,19,06,46,7.70
2021,04,19,06,47,7.70
2021,04,19,06,48,7.70
2021,04,19,06,49,7.70
2021,04,19,06,50,7.70
2021,04,19,06,51,7.70
2021,04,19,06,52,7.70
2021,04,19,06,53,7.80
2021,04,19,06,54,7.80
2021,04,19,06,55,7.80
2021,04,19,06,56,7.80
2021,04,19,06,57,7.80
2021,04,19,06,58,7.90
2021,04,19,06,59,7.90
2021,04,19,07,00,7.90
2021,04,19,07,01,7.90
2021,04,19,07,02,8.00
2021,04,19,07,03,8.00
2021,04,19,07,04,8.00
2021,04,19,07,05,8.10
2021,04,19,07,06,8.10
2021,04,19,07,07,8.20
2021,04,19,07,08,8.20
2021,04,19,07,09,8.20
2021,04,19,07,10,8.30
2021,04,19,07,11,8.30
2021,04,19,07,12,8.40
2021,04,19,07,13,8.40
2021,04,19,07,14,8.50
2021,04,19,07,15,8.60
2021,04,19,07,16,8.70
2021,04,19,07,17,8.70
2021,04,19,07,18,8.70
2021,04,19,07,19,8.80
2021,04,19,07,20,8.80
2021,04,19,07,21,8.80
2021,04,19,07,22,8.80
2021,04,19,07,23,8.90
2021,04,19,07,24,8.90
2021,04,19,07,25,8.90
2021,04,19,07,26,8.90
2021,04,19,07,27,9.00
2021,04,19,07,28,9.10
2021,04,19,07,29,9.20
2021,04,19,07,30,9.20
2021,04,19,07,31,9.30
2021,04,19,07,32,9.40
2021,04,19,07,33,9.40
2021,04,19,07,34,9.40
2021,04,19,07,35,9.50
2021,04,19,07,36,9.50
2021,04,19,07,37,9.60
2021,04,19,07,38,9.60
2021,04,19,07,39,9.60
2021,04,19,07,40,9.70
2021,04,19,07,41,9.70
2021,04,19,07,42,9.70
2021,04,19,07,43,9.80
2021,04,19,07,44,9.80
2021,04,19,07,45,9.90
2021,04,19,07,46,9.90
2021,04,19,07,47,9.90
2021,04,19,07,48,10.00
2021,04,19,07,49,10.00
2021,04,19,07,50,10.10
2021,04,19,07,51,10.10
2021,04,19,07,52,10.20
2021,04,19,07,53,10.20
2021,04,19,07,54,10.20
2021,04,19,07,55,10.30
2021,04,19,07,56,10.30
2021,04,19,07,57,10.30
2021,04,19,07,58,10.30
2021,04,19,07,59,10.40
2021,04,19,08,00,10.30
2021,04,19,08,01,10.40
2021,04,19,08,02,10.40
2021,04,19,08,03,10.40
2021,04,19,08,04,10.40
2021,04,19,08,05,10.50
2021,04,19,08,06,10.50
2021,04,19,08,07,10.60
2021,04,19,08,08,10.50
2021,04,19,08,09,10.60
2021,04,19,08,10,10.60
2021,04,19,08,11,10.50
2021,04,19,08,12,10.60
2021,04,19,08,13,10.60
2021,04,19,08,14,10.50
2021,04,19,08,15,10.50
2021,04,19,08,16,10.50
2021,04,19,08,17,10.40
2021,04,19,08,18,10.40
2021,04,19,08,19,10.40
2021,04,19,08,20,10.40
2021,04,19,08,21,10.40
2021,04,19,08,22,10.40
2021,04,19,08,23,10.50
2021,04,19,08,24,10.50
2021,04,19,08,25,10.60
2021,04,19,08,26,10.60
2021,04,19,08,27,10.60
2021,04,19,08,28,10.60
2021,04,19,08,29,10.60
2021,04,19,08,30,10.60
2021,04,19,08,31,10.70
2021,04,19,08,32,10.70
2021,04,19,08,33,10.80
2021,04,19,08,34,10.90
2021,04,19,08,35,10.90
2021,04,19,08,36,11.00
2021,04,19,08,37,11.00
2021,04,19,08,38,11.10
2021,04,19,08,39,11.10
2021,04,19,08,40,11.20
2021,04,19,08,41,11.20
2021,04,19,08,42,11.20
2021,04,19,08,43,11.30
2021,04,19,08,44,11.30
2021,04,19,08,45,11.30
2021,04,19,08,46,11.30
2021,04,19,08,47,11.40
2021,04,19,08,48,11.50
2021,04,19,08,49,11.50
2021,04,19,08,50,11.60
2021,04,19,08,51,11.60
2021,04,19,08,52,11.60
2021,04,19,08,53,11.70
2021,04,19,08,54,11.70
2021,04,19,08,55,11.80
2021,04,19,08,56,11.90
2021,04,19,08,57,11.90
2021,04,19,08,58,12.00
2021,04,19,08,59,12.10
2021,04,19,09,00,12.10
2021,04,19,09,01,12.10
2021,04,19,09,02,12.20
2021,04,19,09,03,12.20
2021,04,19,09,04,12.30
2021,04,19,09,05,12.40
2021,04,19,09,06,12.40
2021,04,19,09,07,12.50
2021,04,19,09,08,12.60
2021,04,19,09,09,12.70
2021,04,19,09,10,12.80
2021,04,19,09,11,12.90
2021,04,19,09,12,12.90
2021,04,19,09,13,13.00
2021,04,19,09,14,13.00
2021,04,19,09,15,13.10
2021,04,19,09,16,13.10
2021,04,19,09,17,13.20
2021,04,19,09,18,13.20
2021,04,19,09,19,13.30
2021,04,19,09,20,13.30
2021,04,19,09,21,13.30
2021,04,19,09,22,13.40
2021,04,19,09,23,13.40
2021,04,19,09,24,13.50
2021,04,19,09,25,13.50
2021,04,19,09,26,13.50
2021,04,19,09,27,13.50
2021,04,19,09,28,13.60
2021,04,19,09,29,13.60
2021,04,19,09,30,13.60
2021,04,19,09,31,13.60
2021,04,19,09,32,13.70
2021,04,19,09,33,13.70
2021,04,19,09,34,13.80
2021,04,19,09,35,13.80
2021,04,19,09,36,13.90
2021,04,19,09,37,14.00
2021,04,19,09,38,14.10
2021,04,19,09,39,14.10
2021,04,19,09,40,14.20
2021,04,19,09,41,14.20
2021,04,19,09,42,14.30
2021,04,19,09,43,14.30
2021,04,19,09,44,14.40
2021,04,19,09,45,14.60
2021,04,19,09,46,14.70
2021,04,19,09,47,14.80
2021,04,19,09,48,15.00
2021,04,19,09,49,15.10
2021,04,19,09,50,15.20
2021,04,19,09,51,15.30
2021,04,19,09,52,15.40
2021,04,19,09,53,15.50
2021,04,19,09,54,15.60
2021,04,19,09,55,15.70
2021,04,19,09,56,15.70
2021,04,19,09,57,15.80
2021,04,19,09,58,15.80
2021,04,19,09,59,15.90
2021,04,19,10,00,15.90
2021,04,19,10,01,16.00
2021,04,19,10,02,16.10
2021,04,19,10,03,16.10
2021,04,19,10,04,16.20
2021,04,19,10,05,16.10
2021,04,19,10,06,16.20
2021,04,19,10,07,16.20
2021,04,19,10,08,16.20
2021,04,19,10,09,16.30
2021,04,19,10,10,16.30
2021,04,19,10,11,16.30
2021,04,19,10,12,16.40
2021,04,19,10,13,16.40
2021,04,19,10,14,16.40
2021,04,19,10,15,16.30
2021,04,19,10,16,16.30
2021,04,19,10,17,16.40
2021,04,19,10,18,16.50
2021,04,19,10,19,16.50
2021,04,19,10,20,16.50
2021,04,19,10,21,16.50
2021,04,19,10,22,16.50
2021,04,19,10,23,16.50
2021,04,19,10,24,16.50
2021,04,19,10,25,16.50
2021,04,19,10,26,16.50
2021,04,19,10,27,16.50
2021,04,19,10,28,16.50
2021,04,19,10,29,16.50
2021,04,19,10,30,16.50
2021,04,19,10,31,16.40
2021,04,19,10,32,16.40
2021,04,19,10,33,16.40
2021,04,19,10,34,16.40
2021,04,19,10,35,16.40
2021,04,19,10,36,16.40
2021,04,19,10,37,16.40
2021,04,19,10,38,16.50
2021,04,19,10,39,16.60
2021,04,19,10,40,16.60
2021,04,19,10,41,16.60
2021,04,19,10,42,16.50
2021,04,19,10,43,16.50
2021,04,19,10,44,16.40
2021,04,19,10,45,16.40
2021,04,19,10,46,16.40
2021,04,19,10,47,16.40
2021,04,19,10,48,16.40
2021,04,19,10,49,16.40
2021,04,19,10,50,16.40
2021,04,19,10,51,16.40
2021,04,19,10,52,16.40
2021,04,19,10,53,16.30
2021,04,19,10,54,16.30
2021,04,19,10,55,16.30
2021,04,19,10,56,16.30
2021,04,19,10,57,16.30
2021,04,19,10,58,16.20
2021,04,19,10,59,16.20
2021,04,19,11,00,16.20
2021,04,19,11,01,16.10
2021,04,19,11,02,16.00
2021,04,19,11,03,16.00
2021,04,19,11,04,16.00
2021,04,19,11,05,16.00
2021,04,19,11,06,16.10
2021,04,19,11,07,16.10
2021,04,19,11,08,16.20
2021,04,19,11,09,16.10
2021,04,19,11,10,16.10
2021,04,19,11,11,16.10
2021,04,19,11,12,16.10
2021,04,19,11,13,16.10
2021,04,19,11,14,16.00
2021,04,19,11,15,16.00
2021,04,19,11,16,15.90
2021,04,19,11,17,15.80
2021,04,19,11,18,15.80
2021,04,19,11,19,15.70
2021,04,19,11,20,15.70
2021,04,19,11,21,15.60
2021,04,19,11,22,15.60
2021,04,19,11,23,15.50
2021,04,19,11,24,15.50
2021,04,19,11,25,15.40
2021,04,19,11,26,15.30
2021,04,19,11,27,15.20
2021,04,19,11,28,15.20
2021,04,19,11,29,15.20
2021,04,19,11,30,15.20
2021,04,19,11,31,15.20
2021,04,19,11,32,15.30
2021,04,19,11,33,15.30
2021,04,19,11,34,15.30
2021,04,19,11,35,15.30
2021,04,19,11,36,15.20
2021,04,19,11,37,15.20
2021,04,19,11,38,15.10
2021,04,19,11,39,15.10
2021,04,19,11,40,15.10
2021,04,19,11,41,15.10
2021,04,19,11,42,15.10
2021,04,19,11,43,15.10
2021,04,19,11,44,15.20
2021,04,19,11,45,15.20
2021,04,19,11,46,15.20
2021,04,19,11,47,15.30
2021,04,19,11,48,15.30
2021,04,19,11,49,15.30
2021,04,19,11,50,15.40
2021,04,19,11,51,15.40
2021,04,19,11,52,15.40
2021,04,19,11,53,15.50
2021,04,19,11,54,15.50
2021,04,19,11,55,15.40
2021,04,19,11,56,15.40
2021,04,19,11,57,15.40
2021,04,19,11,58,15.40
2021,04,19,11,59,15.30
2021,04,19,12,00,15.20
2021,04,19,12,01,15.20
2021,04,19,12,02,15.30
2021,04,19,12,03,15.40
2021,04,19,12,04,15.40
2021,04,19,12,05,15.40
2021,04,19,12,06,15.40
2021,04,19,12,07,15.40
2021,04,19,12,08,15.30
2021,04,19,12,09,15.30
2021,04,19,12,10,15.30
2021,04,19,12,11,15.30
2021,04,19,12,12,15.30
2021,04,19,12,13,15.40
2021,04,19,12,14,15.40
2021,04,19,12,15,15.40
2021,04,19,12,16,15.40
2021,04,19,12,17,15.40
2021,04,19,12,18,15.40
2021,04,19,12,19,15.50
2021,04,19,12,20,15.60
2021,04,19,12,21,15.70
2021,04,19,12,22,15.80
2021,04,19,12,23,15.90
2021,04,19,12,24,15.90
2021,04,19,12,25,16.00
2021,04,19,12,26,16.10
2021,04,19,12,27,16.10
2021,04,19,12,28,16.10
2021,04,19,12,29,16.20
2021,04,19,12,30,16.20
2021,04,19,12,31,16.20
2021,04,19,12,32,16.30
2021,04,19,12,33,16.30
2021,04,19,12,34,16.40
2021,04,19,12,35,16.40
2021,04,19,12,36,16.40
2021,04,19,12,37,16.40
2021,04,19,12,38,16.30
2021,04,19,12,39,16.30
2021,04,19,12,40,16.20
2021,04,19,12,41,16.10
2021,04,19,12,42,16.10
2021,04,19,12,43,16.10
2021,04,19,12,44,16.10
2021,04,19,12,45,16.20
2021,04,19,12,46,16.20
2021,04,19,12,47,16.20
2021,04,19,12,48,16.20
2021,04,19,12,49,16.30
2021,04,19,12,50,16.40
2021,04,19,12,51,16.50
2021,04,19,12,52,16.50
2021,04,19,12,53,16.60
2021,04,19,12,54,16.60
2021,04,19,12,55,16.60
2021,04,19,12,56,16.70
2021,04,19,12,57,16.60
2021,04,19,12,58,16.60
2021,04,19,12,59,16.50
2021,04,19,13,00,16.60
2021,04,19,13,01,16.50
2021,04,19,13,02,16.50
2021,04,19,13,03,16.40
2021,04,19,13,04,16.40
2021,04,19,13,05,16.40
2021,04,19,13,06,16.40
2021,04,19,13,07,16.40
2021,04,19,13,08,16.40
2021,04,19,13,09,16.40
2021,04,19,13,10,16.40
2021,04,19,13,11,16.40
2021,04,19,13,12,16.40
2021,04,19,13,13,16.50
2021,04,19,13,14,16.50
2021,04,19,13,15,16.40
2021,04,19,13,16,16.50
2021,04,19,13,17,16.50
2021,04,19,13,18,16.60
2021,04,19,13,19,16.80
2021,04,19,13,20,16.90
2021,04,19,13,21,17.00
2021,04,19,13,22,17.10
2021,04,19,13,23,17.10
2021,04,19,13,24,17.20
2021,04,19,13,25,17.30
2021,04,19,13,26,17.30
2021,04,19,13,27,17.40
2021,04,19,13,28,17.50
2021,04,19,13,29,17.70
2021,04,19,13,30,17.70
2021,04,19,13,31,17.80
2021,04,19,13,32,17.80
2021,04,19,13,33,17.80
2021,04,19,13,34,17.70
2021,04,19,13,35,17.70
2021,04,19,13,36,17.60
2021,04,19,13,37,17.60
2021,04,19,13,38,17.60
2021,04,19,13,39,17.50
2021,04,19,13,40,17.50
2021,04,19,13,41,17.60
2021,04,19,13,42,17.70
2021,04,19,13,43,17.70
2021,04,19,13,44,17.80
2021,04,19,13,45,17.90
2021,04,19,13,46,17.90
2021,04,19,13,47,17.90
2021,04,19,13,48,17.90
2021,04,19,13,49,17.90
2021,04,19,13,50,17.90
2021,04,19,13,51,17.90
2021,04,19,13,52,17.90
2021,04,19,13,53,17.90
2021,04,19,13,54,17.90
2021,04,19,13,55,17.90
2021,04,19,13,56,18.00
2021,04,19,13,57,18.00
2021,04,19,13,58,18.00
2021,04,19,13,59,18.00
2021,04,19,14,00,18.00
2021,04,19,14,01,18.00
2021,04,19,14,02,17.90
2021,04,19,14,03,18.00
2021,04,19,14,04,18.00
2021,04,19,14,05,18.00
2021,04,19,14,06,18.00
2021,04,19,14,07,18.00
2021,04,19,14,08,18.00
2021,04,19,14,09,18.10
2021,04,19,14,10,18.10
2021,04,19,14,11,18.20
2021,04,19,14,12,18.10
2021,04,19,14,13,18.10
2021,04,19,14,14,18.20
2021,04,19,14,15,18.20
2021,04,19,14,16,18.20
2021,04,19,14,17,18.20
2021,04,19,14,18,18.20
2021,04,19,14,19,18.20
2021,04,19,14,20,18.20
2021,04,19,14,21,18.20
2021,04,19,14,22,18.30
2021,04,19,14,23,18.30
2021,04,19,14,24,18.30
2021,04,19,14,25,18.30
2021,04,19,14,26,18.30
2021,04,19,14,27,18.40
2021,04,19,14,28,18.40
2021,04,19,14,29,18.30
2021,04,19,14,30,18.40
2021,04,19,14,31,18.40
2021,04,19,14,32,18.40
2021,04,19,14,33,18.40
2021,04,19,14,34,18.40
2021,04,19,14,35,18.40
2021,04,19,14,36,18.50
2021,04,19,14,37,18.60
2021,04,19,14,38,18.60
2021,04,19,14,39,18.70
2021,04,19,14,40,18.70
2021,04,19,14,41,18.80
2021,04,19,14,42,18.80
2021,04,19,14,43,18.90
2021,04,19,14,44,18.90
2021,04,19,14,45,19.00
2021,04,19,14,46,19.00
2021,04,19,14,47,19.00
2021,04,19,14,48,19.00
2021,04,19,14,49,19.00
2021,04,19,14,50,19.10
2021,04,19,14,51,19.10
2021,04,19,14,52,19.10
2021,04,19,14,53,19.10
2021,04,19,14,54,19.10
2021,04,19,14,55,19.10
2021,04,19,14,56,19.10
2021,04,19,14,57,19.10
2021,04,19,14,58,19.00
2021,04,19,14,59,19.00
2021,04,19,15,00,18.90
2021,04,19,15,01,18.90
2021,04,19,15,02,18.90
2021,04,19,15,03,18.90
2021,04,19,15,04,18.90
2021,04,19,15,05,19.00
2021,04,19,15,06,19.10
2021,04,19,15,07,19.10
2021,04,19,15,08,19.10
2021,04,19,15,09,19.00
2021,04,19,15,10,19.00
2021,04,19,15,11,19.10
2021,04,19,15,12,19.10
2021,04,19,15,13,19.10
2021,04,19,15,14,19.00
2021,04,19,15,15,19.00
2021,04,19,15,16,19.00
2021,04,19,15,17,19.00
2021,04,19,15,18,18.90
2021,04,19,15,19,19.00
2021,04,19,15,20,19.00
2021,04,19,15,21,19.00
2021,04,19,15,22,19.10
2021,04,19,15,23,19.10
2021,04,19,15,24,19.20
2021,04,19,15,25,19.30
2021,04,19,15,26,19.40
2021,04,19,15,27,19.50
2021,04,19,15,28,19.50
2021,04,19,15,29,19.60
2021,04,19,15,30,19.60
2021,04,19,15,31,19.60
2021,04,19,15,32,19.70
2021,04,19,15,33,19.70
2021,04,19,15,34,19.70
2021,04,19,15,35,19.60
2021,04,19,15,36,19.60
2021,04,19,15,37,19.50
2021,04,19,15,38,19.50
2021,04,19,15,39,19.40
2021,04,19,15,40,19.40
2021,04,19,15,41,19.40
2021,04,19,15,42,19.40
2021,04,19,15,43,19.40
2021,04,19,15,44,19.30
2021,04,19,15,45,19.30
2021,04,19,15,46,19.20
2021,04,19,15,47,19.10
2021,04,19,15,48,19.10
2021,04,19,15,49,19.10
2021,04,19,15,50,19.10
2021,04,19,15,51,19.10
2021,04,19,15,52,19.10
2021,04,19,15,53,19.10
2021,04,19,15,54,19.10
2021,04,19,15,55,19.10
2021,04,19,15,56,19.10
2021,04,19,15,57,19.00
2021,04,19,15,58,18.90
2021,04,19,15,59,18.90
2021,04,19,16,00,18.90
2021,04,19,16,01,18.90
2021,04,19,16,02,18.90
2021,04,19,16,03,18.90
2021,04,19,16,04,18.80
2021,04,19,16,05,18.80
2021,04,19,16,06,18.80
2021,04,19,16,07,18.80
2021,04,19,16,08,18.80
2021,04,19,16,09,18.80
2021,04,19,16,10,18.70
2021,04,19,16,11,18.70
2021,04,19,16,12,18.70
2021,04,19,16,13,18.70
2021,04,19,16,14,18.70
2021,04,19,16,15,18.70
2021,04,19,16,16,18.70
2021,04,19,16,17,18.70
2021,04,19,16,18,18.70
2021,04,19,16,19,18.70
2021,04,19,16,20,18.80
2021,04,19,16,21,18.80
2021,04,19,16,22,18.80
2021,04,19,16,23,18.80
2021,04,19,16,24,18.90
2021,04,19,16,25,18.90
2021,04,19,16,26,19.00
2021,04,19,16,27,19.10
2021,04,19,16,28,19.10
2021,04,19,16,29,19.10
2021,04,19,16,30,19.10
2021,04,19,16,31,19.00
2021,04,19,16,32,18.90
2021,04,19,16,33,18.90
2021,04,19,16,34,18.80
2021,04,19,16,35,18.80
2021,04,19,16,36,18.80
2021,04,19,16,37,18.80
2021,04,19,16,38,18.80
2021,04,19,16,39,18.80
2021,04,19,16,40,18.80
2021,04,19,16,41,18.90
2021,04,19,16,42,18.90
2021,04,19,16,43,18.90
2021,04,19,16,44,19.00
2021,04,19,16,45,19.00
2021,04,19,16,46,19.00
2021,04,19,16,47,19.10
2021,04,19,16,48,19.10
2021,04,19,16,49,19.10
2021,04,19,16,50,19.20
2021,04,19,16,51,19.20
2021,04,19,16,52,19.20
2021,04,19,16,53,19.20
2021,04,19,16,54,19.30
2021,04,19,16,55,19.40
2021,04,19,16,56,19.40
2021,04,19,16,57,19.40
2021,04,19,16,58,19.30
2021,04,19,16,59,19.30
2021,04,19,17,00,19.30
2021,04,19,17,01,19.30
2021,04,19,17,02,19.30
2021,04,19,17,03,19.30
2021,04,19,17,04,19.20
2021,04,19,17,05,19.30
2021,04,19,17,06,19.30
2021,04,19,17,07,19.40
2021,04,19,17,08,19.40
2021,04,19,17,09,19.40
2021,04,19,17,10,19.40
2021,04,19,17,11,19.30
2021,04,19,17,12,19.30
2021,04,19,17,13,19.30
2021,04,19,17,14,19.20
2021,04,19,17,15,19.20
2021,04,19,17,16,19.20
2021,04,19,17,17,19.10
2021,04,19,17,18,19.10
2021,04,19,17,19,19.00
2021,04,19,17,20,19.00
2021,04,19,17,21,18.90
2021,04,19,17,22,18.90
2021,04,19,17,23,18.90
2021,04,19,17,24,18.90
2021,04,19,17,25,18.90
2021,04,19,17,26,18.90